Regional Weather Roundup
Issued by NWS

Home | Current Version | Previous Version | Text Only | Print | Product List | Glossary On
Versions: 1 2 3 4 5 6 7 8 9 10 11 12 13 14 15 16 17 18 19 20 21 22 23 24 25 26 27 28 29 30 31 32 33 34 35 36 37 38 39 40 41 42 43 44 45 46 47 48 49 50
000
ASUS43 KLMK 251602
RWRKY
KENTUCKY REGIONAL WEATHER ROUNDUP
NATIONAL WEATHER SERVICE LOUISVILLE KY
1200 PM EDT SUN SEP 25 2016

NOTE "FAIR" INDICATES FEW OR NO CLOUDS BELOW 12,000 FEET
WITH NO SIGNIFICANT WEATHER AND/OR OBSTRUCTIONS TO VISIBILITY.

KYZ001>023-026-027-061>063-070>075-251700-
WESTERN AND SOUTH CENTRAL KENTUCKY

CITY           SKY/WX    TMP DP  RH WIND       PRES   REMARKS
PADUCAH        SUNNY     87  67  51 CALM      30.08R HX  90
HENDERSON      SUNNY     88  66  48 SW5       30.07F HX  90
OWENSBORO      SUNNY    N/A N/A N/A VRB3      30.09F
HOPKINSVILLE   SUNNY     84  67  54 SE3       30.09S
BOWLING GREEN  SUNNY     87  68  52 CALM      30.10S HX  90
GLASGOW        NOT AVBL
$$

KYZ024-025-028>034-038-045-046-053-251700-
NORTH CENTRAL KENTUCKY

CITY           SKY/WX    TMP DP  RH WIND       PRES   REMARKS
LOUISVILLE/SDF MOSUNNY   82  65  56 VRB3      30.10F
LOUISVILLE/LOU SUNNY     82  66  58 CALM      30.12S
FORT KNOX      SUNNY     81  67  62 VRB3      30.10F
$$

KYZ035>037-039>044-047>052-055>060-089>105-251700-
NORTHEAST KENTUCKY

CITY           SKY/WX    TMP DP  RH WIND       PRES   REMARKS
LEXINGTON      SUNNY     84  64  50 CALM      30.13F
COVINGTON      SUNNY     78  64  61 SE5       30.14F
FRANKFORT      MOSUNNY   83  66  56 VRB3      30.12S
$$

KYZ054-064>069-076>088-106>120-251700-
SOUTHEAST KENTUCKY

CITY           SKY/WX    TMP DP  RH WIND       PRES   REMARKS
JACKSON        SUNNY     78  67  68 CALM      30.15F
LONDON         SUNNY     81  64  56 CALM      30.13F
SOMERSET       MOSUNNY   81  66  61 CALM      30.13F
MIDDLESBORO    SUNNY     76  66  73 CALM      30.14F
MONTICELLO     MOSUNNY   83  68  60 VRB6G16   30.13F
$$




USA.gov is the U.S. government's official web portal to all federal, state and local government web resources and services.